OneWeb SL0359

operational
NORAD ID: 49285 Int'l Des: 2021-090 Owner: ONEWEBN Country: UK Constellation: oneweb
LEOCIRCULARPOLARONEWEB_TYPE

About OneWeb SL0359

Description loading...

Live Position

Loading 3D Globe...

Upcoming Passes

Altitude History

Altitude vs Time

uPlot chart will show altitude changes over time

Two-Line Element Set

1 49285U 21090G 25258.18010134 .00000025 00000-0 29583-4 0 9998
2 49285 87.9268 329.2657 0002223 104.2839 255.8542 13.20769205194235
Epoch: Sep 15, 2025 • Age: 11 hours

Current Status

Altitude 1211.2 km
Velocity 7.25 km/s
Sub-Earth Point -77.28°S, 102.57°E
Launch Date Oct 14, 2021
Age 3.9 years
Type internet

Technical Details

Classification Payload
Mass 148.00 kg
Dry Mass 140.00 kg
Total Mass 148.00 kg
Length 1.30 m
Diameter 1.00 m
Span 5.00 m
Shape Trapezoid+2 pan
Manufacturer ONEWUS
Bus Type ARROW
Phase Status In Orbit
Owner/State ONEWEBN/UK

Large Constellations

Loading constellations...